TimeAKDT,TemperatureF,Dew PointF,Humidity,Sea Level PressureIn,VisibilityMPH,Wind Direction,Wind SpeedMPH,Gust SpeedMPH,PrecipitationIn,Events,Conditions,WindDirDegrees,DateUTC
12:16 AM,44.6,39.2,81,29.69,10.0,Calm,Calm,-,N/A,,Overcast,0,2011-10-29 08:16:00
12:36 AM,44.6,39.2,81,29.70,10.0,SSW,4.6,-,N/A,,Overcast,210,2011-10-29 08:36:00
12:56 AM,44.6,39.2,81,29.70,9.0,Calm,Calm,-,N/A,,Overcast,0,2011-10-29 08:56:00
1:16 AM,44.6,39.2,81,29.71,10.0,Calm,Calm,-,N/A,,Overcast,0,2011-10-29 09:16:00
1:36 AM,44.6,39.2,81,29.72,10.0,Calm,Calm,-,N/A,,Overcast,0,2011-10-29 09:36:00
1:56 AM,44.6,39.2,81,29.72,10.0,SSE,4.6,-,N/A,,Overcast,150,2011-10-29 09:56:00
2:16 AM,44.6,39.2,81,29.72,5.0,SSE,8.1,-,N/A,,Overcast,160,2011-10-29 10:16:00
2:36 AM,44.6,39.2,81,29.72,10.0,ESE,11.5,16.1,N/A,,Overcast,120,2011-10-29 10:36:00
2:56 AM,44.6,39.2,81,29.72,10.0,SSE,10.4,-,N/A,,Mostly Cloudy,150,2011-10-29 10:56:00
3:16 AM,44.6,39.2,81,29.73,10.0,South,5.8,-,N/A,,Overcast,180,2011-10-29 11:16:00
3:36 AM,44.6,39.2,81,29.73,9.0,SE,6.9,-,N/A,,Overcast,140,2011-10-29 11:36:00
3:56 AM,44.6,39.2,81,29.72,10.0,ESE,11.5,17.3,N/A,,Overcast,120,2011-10-29 11:56:00
4:16 AM,44.6,39.2,81,29.72,10.0,South,5.8,-,N/A,,Overcast,190,2011-10-29 12:16:00
4:36 AM,44.6,39.2,81,29.71,9.0,SSE,6.9,-,N/A,,Overcast,150,2011-10-29 12:36:00
4:56 AM,44.6,39.2,81,29.70,10.0,ESE,15.0,-,N/A,,Overcast,120,2011-10-29 12:56:00
5:16 AM,44.6,37.4,76,29.68,10.0,SE,19.6,28.8,N/A,,Overcast,130,2011-10-29 13:16:00
5:36 AM,44.6,37.4,76,29.68,8.0,ESE,18.4,23.0,N/A,,Overcast,120,2011-10-29 13:36:00
5:56 AM,44.6,37.4,76,29.65,10.0,ESE,23.0,27.6,N/A,,Overcast,120,2011-10-29 13:56:00
6:16 AM,42.8,37.4,81,29.65,10.0,ESE,23.0,28.8,N/A,,Overcast,120,2011-10-29 14:16:00
6:36 AM,42.8,37.4,81,29.65,10.0,ESE,20.7,28.8,N/A,,Overcast,120,2011-10-29 14:36:00
6:56 AM,42.8,37.4,81,29.64,10.0,ESE,23.0,28.8,N/A,,Overcast,120,2011-10-29 14:56:00
7:16 AM,42.8,37.4,81,29.64,10.0,SE,19.6,-,N/A,,Overcast,130,2011-10-29 15:16:00
7:36 AM,42.8,37.4,81,29.62,10.0,ESE,24.2,31.1,N/A,,Overcast,120,2011-10-29 15:36:00
7:56 AM,42.8,37.4,81,29.62,10.0,ESE,23.0,28.8,N/A,,Overcast,120,2011-10-29 15:56:00
8:16 AM,42.8,37.4,81,29.61,10.0,ESE,20.7,26.5,N/A,,Overcast,110,2011-10-29 16:16:00
8:36 AM,42.8,37.4,81,29.60,10.0,ESE,23.0,29.9,N/A,,Overcast,120,2011-10-29 16:36:00
8:56 AM,42.8,37.4,81,29.59,10.0,ESE,21.9,34.5,N/A,,Overcast,110,2011-10-29 16:56:00
9:16 AM,42.8,37.4,81,29.59,10.0,ESE,23.0,33.4,N/A,,Overcast,120,2011-10-29 17:16:00
9:36 AM,42.8,37.4,81,29.58,10.0,ESE,21.9,34.5,N/A,,Overcast,110,2011-10-29 17:36:00
9:56 AM,42.8,37.4,81,29.58,10.0,ESE,21.9,32.2,N/A,,Overcast,110,2011-10-29 17:56:00
10:16 AM,42.8,35.6,76,29.58,10.0,ESE,25.3,35.7,N/A,,Overcast,120,2011-10-29 18:16:00
10:36 AM,42.8,35.6,76,29.58,10.0,ESE,27.6,43.7,N/A,,Overcast,110,2011-10-29 18:36:00
10:56 AM,42.8,37.4,81,29.58,10.0,ESE,23.0,33.4,N/A,,Overcast,110,2011-10-29 18:56:00
11:16 AM,42.8,37.4,81,29.59,10.0,ESE,20.7,38.0,N/A,,Overcast,110,2011-10-29 19:16:00
11:36 AM,42.8,35.6,76,29.58,10.0,ESE,21.9,32.2,N/A,,Overcast,120,2011-10-29 19:36:00
11:56 AM,42.8,35.6,76,29.59,7.0,ESE,20.7,31.1,N/A,,Overcast,120,2011-10-29 19:56:00
12:16 PM,42.8,37.4,81,29.58,7.0,ESE,21.9,28.8,N/A,,Overcast,110,2011-10-29 20:16:00
12:36 PM,41.0,35.6,81,29.55,7.0,ESE,25.3,31.1,N/A,,Overcast,120,2011-10-29 20:36:00
12:56 PM,42.8,35.6,76,29.55,7.0,ESE,23.0,31.1,N/A,,Overcast,120,2011-10-29 20:56:00
1:16 PM,42.8,37.4,81,29.54,7.0,ESE,26.5,34.5,N/A,,Overcast,120,2011-10-29 21:16:00
1:36 PM,42.8,37.4,81,29.53,7.0,ESE,24.2,31.1,N/A,,Overcast,120,2011-10-29 21:36:00
1:56 PM,42.8,37.4,81,29.52,7.0,ESE,24.2,29.9,N/A,,Overcast,120,2011-10-29 21:56:00
2:16 PM,42.8,37.4,81,29.50,7.0,ESE,23.0,31.1,N/A,,Overcast,120,2011-10-29 22:16:00
2:36 PM,42.8,37.4,81,29.49,7.0,ESE,23.0,31.1,N/A,,Overcast,120,2011-10-29 22:36:00
2:56 PM,44.6,39.2,81,29.47,4.0,ESE,25.3,32.2,N/A,,Overcast,120,2011-10-29 22:56:00
3:16 PM,44.6,39.2,81,29.46,4.0,ESE,21.9,31.1,N/A,,Overcast,120,2011-10-29 23:16:00
3:36 PM,44.6,39.2,81,29.44,4.0,ESE,24.2,32.2,N/A,,Overcast,120,2011-10-29 23:36:00
3:56 PM,44.6,39.2,81,29.43,4.0,ESE,23.0,33.4,N/A,,Overcast,120,2011-10-29 23:56:00
4:16 PM,44.6,41.0,87,29.42,4.0,ESE,21.9,31.1,N/A,,Overcast,120,2011-10-30 00:16:00
4:36 PM,46.4,41.0,81,29.41,4.0,ESE,23.0,31.1,N/A,,Overcast,120,2011-10-30 00:36:00
4:56 PM,46.4,41.0,81,29.41,4.0,SE,19.6,28.8,N/A,,Overcast,130,2011-10-30 00:56:00
5:16 PM,46.4,41.0,81,29.43,4.0,SSE,10.4,18.4,N/A,,Overcast,150,2011-10-30 01:16:00
5:36 PM,46.4,42.8,87,29.45,4.0,WNW,16.1,23.0,N/A,,Overcast,290,2011-10-30 01:36:00
5:56 PM,44.6,39.2,81,29.46,4.0,WNW,8.1,-,N/A,,Overcast,300,2011-10-30 01:56:00
6:16 PM,44.6,39.2,81,29.47,4.0,WNW,12.7,17.3,N/A,,Overcast,300,2011-10-30 02:16:00
6:36 PM,44.6,41.0,87,29.48,4.0,NW,9.2,-,N/A,,Overcast,320,2011-10-30 02:36:00
6:56 PM,44.6,39.2,81,29.49,10.0,NW,12.7,-,N/A,,Mostly Cloudy,310,2011-10-30 02:56:00
7:16 PM,44.6,39.2,81,29.51,10.0,Calm,Calm,-,N/A,,Mostly Cloudy,0,2011-10-30 03:16:00
7:36 PM,44.6,37.4,76,29.51,10.0,South,11.5,-,N/A,,Mostly Cloudy,190,2011-10-30 03:36:00
7:56 PM,44.6,37.4,76,29.51,10.0,South,6.9,-,N/A,,Overcast,190,2011-10-30 03:56:00
8:16 PM,44.6,39.2,81,29.52,10.0,ESE,6.9,-,N/A,,Overcast,120,2011-10-30 04:16:00
8:36 PM,44.6,41.0,87,29.52,10.0,SE,11.5,-,N/A,,Overcast,130,2011-10-30 04:36:00
8:56 PM,44.6,39.2,81,29.52,10.0,South,4.6,-,N/A,,Overcast,170,2011-10-30 04:56:00
9:16 PM,44.6,39.2,81,29.53,10.0,Calm,Calm,-,N/A,,Overcast,0,2011-10-30 05:16:00
9:36 PM,44.6,39.2,81,29.54,10.0,Calm,Calm,-,N/A,,Overcast,0,2011-10-30 05:36:00
9:56 PM,42.8,39.2,87,29.54,10.0,Calm,Calm,-,N/A,,Overcast,0,2011-10-30 05:56:00
10:16 PM,42.8,39.2,87,29.54,10.0,Calm,Calm,-,N/A,,Overcast,0,2011-10-30 06:16:00
10:36 PM,42.8,39.2,87,29.54,10.0,SSE,4.6,-,N/A,,Overcast,160,2011-10-30 06:36:00
10:56 PM,42.8,41.0,93,29.53,10.0,ESE,6.9,-,N/A,,Overcast,110,2011-10-30 06:56:00
11:16 PM,42.8,39.2,87,29.52,10.0,ESE,10.4,-,N/A,,Overcast,110,2011-10-30 07:16:00
11:36 PM,44.6,39.2,81,29.52,10.0,SE,8.1,-,N/A,,Mostly Cloudy,130,2011-10-30 07:36:00
11:56 PM,44.6,39.2,81,29.51,10.0,ESE,15.0,-,N/A,,Overcast,110,2011-10-30 07:56:00